Regional Weather Roundup
Issued by NWS

Home | Current Version | Previous Version | Text Only | Print | Product List | Glossary Off
Versions: 1 2 3 4 5 6 7 8 9 10 11 12 13 14 15 16 17 18 19 20 21 22 23 24 25 26 27 28 29 30 31 32 33 34 35 36 37 38 39 40 41 42 43 44 45 46 47 48 49 50

000
ASUS43 KLMK 242110
RWRKY
KENTUCKY REGIONAL WEATHER ROUNDUP
NATIONAL WEATHER SERVICE LOUISVILLE KY
500 PM EDT THU APR 24 2014

NOTE "FAIR" INDICATES FEW OR NO CLOUDS BELOW 12,000 FEET
WITH NO SIGNIFICANT WEATHER AND/OR OBSTRUCTIONS TO VISIBILITY.

KYZ001>023-026-027-061>063-070>075-242200-
WESTERN AND SOUTH CENTRAL KENTUCKY

CITY           SKY/WX    TMP DP  RH WIND       PRES   REMARKS
PADUCAH        PTSUNNY   80  48  32 S14G22    29.75F
HENDERSON      PTSUNNY   75  39  27 S13       29.78F
OWENSBORO      PTSUNNY   76  41  28 S12G18    29.81F
HOPKINSVILLE   PTSUNNY   79  42  27 SW13      29.81F
BOWLING GREEN  MOSUNNY   77  37  23 SW14      29.86F
GLASGOW        PTSUNNY   77  38  24 SW8       29.86F
$$

KYZ024-025-028>034-038-045-046-053-242200-
NORTH CENTRAL KENTUCKY

CITY           SKY/WX    TMP DP  RH WIND       PRES   REMARKS
LOUISVILLE/SDF PTSUNNY   73  39  29 SE10      29.85F
LOUISVILLE/LOU PTSUNNY   75  37  25 SE9       29.86F
FORT KNOX      PTSUNNY   75  40  27 SE12      29.84F
$$

KYZ035>037-039>044-047>052-055>060-089>105-242200-
NORTHEAST KENTUCKY

CITY           SKY/WX    TMP DP  RH WIND       PRES   REMARKS
LEXINGTON      MOSUNNY   72  36  26 S9        29.90F
COVINGTON      PTSUNNY   65  31  28 SE9       29.92F
FRANKFORT      MOSUNNY   70  40  33 VRB5      29.88F
$$

KYZ054-064>069-076>088-106>120-242200-
SOUTHEAST KENTUCKY

CITY           SKY/WX    TMP DP  RH WIND       PRES   REMARKS
JACKSON        SUNNY     75  30  19 CALM      29.93F
LONDON         PTSUNNY   77  31  18 VRB5      29.89F
SOMERSET       MOSUNNY   77  32  19 CALM      29.88F
MIDDLESBORO    PTSUNNY   77  32  19 S7        29.92F
MONTICELLO     MOCLDY    78  35  21 CALM      29.88F
$$




USA.gov is the U.S. government's official web portal to all federal, state and local government web resources and services.